When you browse on this site, cookies collect data to enhance your experience and personalize the content and advertising you see.
Visit our Privacy Policy to learn more. By continuing to use the site, you agree to this use of cookies and data.
  • în România
  • Lista ţărilor
  • Pe 7 zile
  • Temperatura apei
  • Hartă satelitară
  • Meteo pe hartă
  • Widget-uri
  • user-avatar
    Intrare

    Meteo pe oră la Akulino

    Astăzi, 18 Februarie, Luni

    Timp Temperatura Precipitaţii Vânt Presiune Umiditate
    00:00 -6°C° 0 mm 6 m/s 738 mmHg 80%
    01:00 -7°C° 0 mm 5 m/s 739 mmHg 81%
    02:00 -8°C° 0 mm 4 m/s 739 mmHg 86%
    03:00 -8°C° 0 mm 4 m/s 740 mmHg 86%
    04:00 -8°C° 0 mm 4 m/s 741 mmHg 86%
    05:00 -8°C° 0 mm 5 m/s 742 mmHg 86%
    06:00 -8°C° 0 mm 5 m/s 742 mmHg 85%
    07:00 -8°C° 0 mm 5 m/s 743 mmHg 84%
    08:00 -8°C° 0 mm 5 m/s 744 mmHg 82%
    09:00 -7°C° 0 mm 5 m/s 744 mmHg 81%
    10:00 -7°C° 0 mm 4 m/s 745 mmHg 81%
    11:00 -7°C° 0 mm 4 m/s 745 mmHg 80%
    12:00 -7°C° 0 mm 4 m/s 745 mmHg 78%
    13:00 -5°C° 0 mm 4 m/s 746 mmHg 77%
    14:00 -5°C° 0 mm 4 m/s 746 mmHg 75%
    15:00 -6°C° 0 mm 3 m/s 746 mmHg 79%
    16:00 -6°C° 0 mm 2 m/s 747 mmHg 83%
    17:00 -7°C° 0 mm 2 m/s 747 mmHg 87%
    18:00 -8°C° 0 mm 2 m/s 747 mmHg 88%
    19:00 -8°C° 0 mm 1 m/s 747 mmHg 89%
    20:00 -8°C° 0 mm 1 m/s 747 mmHg 90%
    21:00 -8°C° 0 mm 1 m/s 747 mmHg 89%
    22:00 -9°C° 0 mm 1 m/s 747 mmHg 89%
    23:00 -9°C° 0 mm 1 m/s 747 mmHg 88%

    Mâine, 19 Februarie, Marţi

    Timp Temperatura Precipitaţii Vânt Presiune Umiditate
    00:00 -10°C° 0 mm 2 m/s 747 mmHg 88%
    01:00 -10°C° 0 mm 2 m/s 747 mmHg 88%
    02:00 -12°C° 0 mm 3 m/s 747 mmHg 88%
    03:00 -10°C° 0 mm 3 m/s 746 mmHg 87%
    04:00 -11°C° 0 mm 4 m/s 746 mmHg 86%
    05:00 -11°C° 0 mm 4 m/s 745 mmHg 86%
    06:00 -11°C° 0 mm 5 m/s 744 mmHg 83%
    07:00 -10°C° 0 mm 5 m/s 744 mmHg 81%
    08:00 -10°C° 0 mm 5 m/s 743 mmHg 78%
    09:00 -9°C° 0 mm 6 m/s 743 mmHg 76%
    10:00 -6°C° 0 mm 6 m/s 742 mmHg 74%
    11:00 -5°C° 0 mm 6 m/s 742 mmHg 72%
    12:00 -5°C° 0 mm 6 m/s 741 mmHg 72%
    13:00 -4°C° 0 mm 6 m/s 741 mmHg 72%
    14:00 -3°C° 0 mm 6 m/s 740 mmHg 73%
    15:00 -4°C° 0 mm 6 m/s 740 mmHg 75%
    16:00 -4°C° 0 mm 5 m/s 739 mmHg 77%
    17:00 -5°C° 0 mm 5 m/s 739 mmHg 79%
    18:00 -5°C° 0 mm 5 m/s 738 mmHg 81%
    19:00 -5°C° 0 mm 5 m/s 738 mmHg 84%
    20:00 -5°C° 0 mm 6 m/s 737 mmHg 86%
    21:00 -5°C° 0 mm 6 m/s 737 mmHg 87%
    22:00 -4°C° 0 mm 6 m/s 736 mmHg 88%
    23:00 -4°C° 0 mm 6 m/s 735 mmHg 89%

    Poimâine, 20 Februarie, Miercuri

    Timp Temperatura Precipitaţii Vânt Presiune Umiditate
    00:00 -3°C° 0 mm 6 m/s 735 mmHg 89%
    01:00 -3°C° 0 mm 6 m/s 734 mmHg 89%
    02:00 -3°C° 0 mm 6 m/s 733 mmHg 88%
    03:00 -2°C° 0.1 mm 6 m/s 733 mmHg 89%
    04:00 -2°C° 0.1 mm 6 m/s 732 mmHg 90%
    05:00 -1°C° 0.1 mm 5 m/s 732 mmHg 91%
    06:00 -1°C° 0.1 mm 5 m/s 731 mmHg 91%
    07:00 -1°C° 0.1 mm 5 m/s 731 mmHg 91%
    08:00 -1°C° 0.1 mm 5 m/s 731 mmHg 92%
    09:00 -1°C° 0 mm 5 m/s 731 mmHg 92%
    10:00 -1°C° 0 mm 5 m/s 731 mmHg 93%
    11:00 0°C° 0 mm 5 m/s 731 mmHg 93%
    12:00 0°C° 0 mm 5 m/s 731 mmHg 93%
    13:00 0°C° 0 mm 5 m/s 731 mmHg 93%
    14:00 0°C° 0 mm 5 m/s 731 mmHg 93%
    15:00 0°C° 0.1 mm 5 m/s 731 mmHg 91%
    16:00 -1°C° 0.1 mm 4 m/s 731 mmHg 90%
    17:00 -1°C° 0.1 mm 4 m/s 731 mmHg 88%
    18:00 -1°C° 0.1 mm 5 m/s 731 mmHg 88%
    19:00 -1°C° 0.1 mm 5 m/s 731 mmHg 88%
    20:00 -1°C° 0.1 mm 5 m/s 730 mmHg 88%
    21:00 -1°C° 0.2 mm 5 m/s 730 mmHg 88%
    22:00 -1°C° 0.2 mm 5 m/s 730 mmHg 88%
    23:00 -1°C° 0.2 mm 5 m/s 730 mmHg 88%

    21 Februarie, Joi

    Timp Temperatura Precipitaţii Vânt Presiune Umiditate
    00:00 -2°C° 0.1 mm 5 m/s 730 mmHg 87%
    01:00 -2°C° 0.1 mm 5 m/s 730 mmHg 87%
    02:00 -3°C° 0.1 mm 4 m/s 730 mmHg 86%
    03:00 -4°C° 0 mm 5 m/s 730 mmHg 86%
    04:00 -5°C° 0 mm 5 m/s 730 mmHg 86%
    05:00 -5°C° 0 mm 5 m/s 730 mmHg 87%
    06:00 -5°C° 0.1 mm 5 m/s 731 mmHg 85%
    07:00 -5°C° 0.1 mm 5 m/s 731 mmHg 83%
    08:00 -5°C° 0.1 mm 6 m/s 732 mmHg 81%
    09:00 -6°C° 0.1 mm 6 m/s 732 mmHg 78%
    10:00 -7°C° 0.1 mm 7 m/s 733 mmHg 75%
    11:00 -7°C° 0.1 mm 7 m/s 733 mmHg 72%
    12:00 -8°C° 0.1 mm 7 m/s 734 mmHg 72%
    13:00 -8°C° 0.1 mm 7 m/s 735 mmHg 71%
    14:00 -9°C° 0.1 mm 7 m/s 735 mmHg 71%
    15:00 -9°C° 0 mm 7 m/s 736 mmHg 72%
    16:00 -11°C° 0 mm 7 m/s 737 mmHg 73%
    17:00 -11°C° 0 mm 6 m/s 738 mmHg 74%
    18:00 -11°C° 0 mm 6 m/s 739 mmHg 74%
    19:00 -11°C° 0 mm 6 m/s 740 mmHg 75%
    20:00 -12°C° 0 mm 6 m/s 741 mmHg 75%
    21:00 -12°C° 0 mm 6 m/s 741 mmHg 75%
    22:00 -12°C° 0 mm 6 m/s 742 mmHg 75%
    23:00 -14°C° 0 mm 6 m/s 743 mmHg 75%

    22 Februarie, Vineri

    Timp Temperatura Precipitaţii Vânt Presiune Umiditate
    00:00 -14°C° 0 mm 6 m/s 744 mmHg 76%
    01:00 -14°C° 0 mm 6 m/s 744 mmHg 76%
    02:00 -15°C° 0 mm 6 m/s 745 mmHg 76%
    03:00 -14°C° 0 mm 5 m/s 746 mmHg 77%
    04:00 -14°C° 0 mm 5 m/s 746 mmHg 78%
    05:00 -15°C° 0 mm 5 m/s 747 mmHg 79%
    06:00 -15°C° 0 mm 5 m/s 748 mmHg 79%
    07:00 -15°C° 0 mm 5 m/s 749 mmHg 78%
    08:00 -14°C° 0 mm 5 m/s 750 mmHg 78%
    09:00 -14°C° 0 mm 5 m/s 750 mmHg 78%
    10:00 -13°C° 0 mm 5 m/s 750 mmHg 78%
    11:00 -12°C° 0 mm 5 m/s 751 mmHg 77%
    12:00 -12°C° 0 mm 5 m/s 751 mmHg 75%
    13:00 -11°C° 0 mm 5 m/s 751 mmHg 72%
    14:00 -11°C° 0 mm 5 m/s 751 mmHg 70%
    15:00 -11°C° 0 mm 5 m/s 752 mmHg 72%
    16:00 -11°C° 0 mm 4 m/s 752 mmHg 75%
    17:00 -11°C° 0 mm 4 m/s 753 mmHg 77%
    18:00 -12°C° 0 mm 4 m/s 753 mmHg 79%
    19:00 -12°C° 0 mm 4 m/s 754 mmHg 81%
    20:00 -14°C° 0 mm 4 m/s 754 mmHg 83%
    21:00 -14°C° 0 mm 4 m/s 754 mmHg 85%
    22:00 -14°C° 0 mm 3 m/s 755 mmHg 87%
    23:00 -15°C° 0 mm 3 m/s 755 mmHg 89%

    23 Februarie, Sâmbătă

    Timp Temperatura Precipitaţii Vânt Presiune Umiditate
    00:00 -14°C° 0 mm 2 m/s 755 mmHg 90%
    01:00 -14°C° 0 mm 2 m/s 755 mmHg 91%
    02:00 -14°C° 0 mm 2 m/s 755 mmHg 92%
    03:00 -15°C° 0 mm 2 m/s 755 mmHg 92%
    04:00 -15°C° 0 mm 2 m/s 754 mmHg 92%
    05:00 -13°C° 0 mm 1 m/s 754 mmHg 92%
    06:00 -13°C° 0 mm 1 m/s 754 mmHg 92%
    07:00 -12°C° 0 mm 1 m/s 754 mmHg 91%
    08:00 -12°C° 0 mm 1 m/s 753 mmHg 90%
    09:00 -11°C° 0 mm 1 m/s 753 mmHg 88%
    10:00 -10°C° 0 mm 1 m/s 752 mmHg 85%
    11:00 -9°C° 0 mm 2 m/s 752 mmHg 83%
    12:00 -9°C° 0 mm 2 m/s 751 mmHg 82%
    13:00 -8°C° 0 mm 2 m/s 750 mmHg 82%
    14:00 -8°C° 0 mm 2 m/s 750 mmHg 81%
    15:00 -8°C° 0 mm 2 m/s 749 mmHg 83%
    16:00 -8°C° 0 mm 2 m/s 749 mmHg 85%
    17:00 -8°C° 0 mm 2 m/s 749 mmHg 87%
    18:00 -8°C° 0 mm 2 m/s 749 mmHg 89%
    19:00 -9°C° 0 mm 2 m/s 749 mmHg 90%
    20:00 -9°C° 0 mm 2 m/s 749 mmHg 92%
    21:00 -9°C° 0 mm 2 m/s 748 mmHg 93%
    22:00 -9°C° 0 mm 2 m/s 748 mmHg 93%
    23:00 -9°C° 0 mm 2 m/s 748 mmHg 94%
    Arată mai mult